Find Starlink 33832

NORAD ID: 63637 Int'l Des: 2025-083 Owner: SPXS Country: US Constellation: starlink operational
LEOCIRCULAR

Live Position

Loading 3D Globe...

About Starlink 33832

Description loading...

Upcoming Passes

Passes for default location (London). Set your location on the main map for personalized predictions.

Altitude History

Loading altitude history...

Two-Line Element Set

1 63637U 25083D 26125.46558693 .00028592 00000-0 10437-2 0 9998
2 63637 42.9997 44.2591 0002144 279.2428 80.8181 15.27605721 58754
Epoch: May 5, 2026 • Age: 7 hours

Current Status

Altitude 486.3 km
Velocity 7.63 km/s
Sub-Earth Point 37.45°N, 34.84°E
Launch Date Apr 25, 2025
Age 1 years
Type internet

Technical Details

Classification Payload
Mass 575.00 kg
Dry Mass 530.00 kg
Total Mass 575.00 kg
Length 0.30 m
Diameter 4.10 m
Span 29.00 m
Shape Box + pan
Manufacturer SPXS
Bus Type Starlink V2MO
Phase Status In Orbit
Owner/State SPXS/US

Most Searched